Location: *
(37.5724°S, 58.0067°E)
Time: 21:05:28
(UTC+00:00)

Cosmos 1603 - Pass Details

Date: 26 September 2020
Orbit: 832 x 858 km, 71.0° (Epoch: 27 October)

Event Time Altitude Azimuth Distance (km) Brightness Sun altitude
Rises 15:13:20 0° 351° (N) 3,366 6.8 -13.6°
Reaches altitude 10° 15:15:47 10° 355° (N) 2,440 6.0 -14.1°
Maximum altitude 15:21:15 57° 72° (ENE) 987 3.7 -15.1°
Drops below altitude 10° 15:26:48 10° 149° (SSE) 2,479 6.0 -16.2°
Sets 15:29:19 0° 153° (SSE) 3,423 6.7 -16.7°
